Swanton, VT

7:47 PM EDT on August 29, 2016 (GMT -0400)
Franklin County State

Weather History for KFSO - May, 2014

Change the Weather History Date:

Saturday, May 10, 2014

  Actual Average (KPBG) Record (KPBG)
Temperature  
Mean Temperature 72 °F 54 °F  
Max Temperature 82 °F 66 °F 91 °F (1979)
Min Temperature 62 °F 43 °F 28 °F (1966)
Degree Days  
Heating Degree Days 0 11  
Month to date heating degree days 123  
Since 1 July heating degree days 7467  
Cooling Degree Days 6 0  
Month to date cooling degree days 0  
Year to date cooling degree days 0  
Growing Degree Days 22 (Base 50)    
Moisture  
Dew Point 50 °F    
Average Humidity 55    
Maximum Humidity 89    
Minimum Humidity 19    
Precipitation  
Precipitation 0.00 in - 0.72 in (1948)
Month to date precipitation  
Year to date precipitation  
Sea Level Pressure  
Sea Level Pressure 29.74 in    
Wind  
Wind Speed 12 mph (SSW)    
Max Wind Speed 20 mph    
Max Gust Speed 30 mph    
Visibility 10 miles    
Events Rain    
T = Trace of Precipitation, MM = Missing Value Source: NWS Daily Summary

Daily Weather History Graph

Daily Weather History Graph

Search for Another Location

Airport or City:

Trip Planner

Search our weather history database for the weather conditions in past years. The results will help you decide how hot, cold, wet, or windy it might be!

Date:

Astronomy

May. 10, 2014 Rise Set
Actual Time 5:29 AM EDT 8:08 PM EDT
Civil Twilight 4:56 AM EDT 8:42 PM EDT
Nautical Twilight 4:13 AM EDT 9:24 PM EDT
Astronomical Twilight 3:25 AM EDT 10:13 PM EDT
Moon 3:51 PM EDT (5/10) 3:13 AM EDT (5/10)
Length of Visible Light 15h 46m
Length of Day
14h 39m
Waxing Gibbous, 82% of the Moon is Illuminated
May 10
Waxing Gibbous
May 14
Full
May 21
Last Quarter
May 28
New
Jun 5
First Quarter

Hourly Weather History & Observations

Time (EDT) Temp. Dew Point Humidity Pressure Visibility Wind Dir Wind Speed Gust Speed Precip Events Conditions
12:15 AM 64.9 °F 55.9 °F 73% 29.84 in 10.0 mi South 16.1 mph 27.6 mph N/A Rain Light Rain
12:35 AM 66.2 °F 56.3 °F 70% 29.83 in 10.0 mi South 19.6 mph 29.9 mph N/A   Scattered Clouds
12:55 AM 66.2 °F 55.8 °F 69% 29.83 in 10.0 mi South 12.7 mph 26.5 mph N/A   Scattered Clouds
1:15 AM 64.2 °F 55.9 °F 74% 29.82 in 10.0 mi South 16.1 mph 25.3 mph N/A Rain Light Rain
1:35 AM 63.7 °F 56.5 °F 77% 29.82 in 10.0 mi South 13.8 mph 20.7 mph N/A Rain Light Rain
1:55 AM 64.0 °F 55.9 °F 75% 29.82 in 10.0 mi South 12.7 mph 25.3 mph N/A   Drizzle
2:15 AM 63.5 °F 56.5 °F 78% 29.82 in 10.0 mi South 11.5 mph 28.8 mph N/A Rain Light Rain
2:35 AM 63.9 °F 56.5 °F 77% 29.81 in 10.0 mi South 11.5 mph 21.9 mph N/A Rain Rain
2:55 AM 63.5 °F 56.7 °F 78% 29.80 in 10.0 mi South 11.5 mph 24.2 mph N/A Rain Rain
3:15 AM 63.5 °F 57.2 °F 80% 29.80 in 7.0 mi South 13.8 mph 28.8 mph N/A Rain Rain
3:35 AM 63.5 °F 58.5 °F 84% 29.79 in 7.0 mi South 11.5 mph 25.3 mph N/A Rain Rain
3:55 AM 63.5 °F 59.0 °F 85% 29.78 in 7.0 mi South 15.0 mph 21.9 mph N/A Rain Light Rain
4:15 AM 63.5 °F 58.8 °F 85% 29.77 in 7.0 mi South 13.8 mph 23.0 mph N/A Rain Rain
4:35 AM 63.5 °F 59.2 °F 86% 29.77 in 5.0 mi South 12.7 mph 25.3 mph N/A Rain Heavy Rain
4:55 AM 62.4 °F 58.6 °F 87% 29.76 in 5.0 mi South 12.7 mph 18.4 mph N/A Rain Rain
5:15 AM 62.6 °F 59.0 °F 88% 29.75 in 7.0 mi South 10.4 mph 19.6 mph N/A Rain Rain
5:35 AM 62.6 °F 59.0 °F 88% 29.76 in 10.0 mi South 10.4 mph 19.6 mph N/A Rain Rain
5:55 AM 62.8 °F 59.0 °F 87% 29.76 in 7.0 mi South 13.8 mph 20.7 mph N/A Rain Light Rain
6:15 AM 63.0 °F 59.4 °F 88% 29.76 in 10.0 mi South 10.4 mph 17.3 mph N/A Rain Light Rain
6:35 AM 63.0 °F 59.4 °F 88% 29.76 in 7.0 mi South 10.4 mph 16.1 mph N/A Rain Light Rain
6:55 AM 63.1 °F 59.7 °F 89% 29.76 in 7.0 mi South 10.4 mph 16.1 mph N/A Rain Light Rain
7:15 AM 63.5 °F 60.1 °F 89% 29.76 in 10.0 mi South 8.1 mph 17.3 mph N/A   Drizzle
7:35 AM 63.5 °F 59.9 °F 88% 29.75 in 10.0 mi South 6.9 mph 16.1 mph N/A Rain Rain
7:55 AM 63.5 °F 59.9 °F 88% 29.75 in 10.0 mi South 8.1 mph - N/A Rain Rain
8:15 AM 63.5 °F 59.9 °F 88% 29.74 in 10.0 mi South 6.9 mph - N/A   Light Drizzle
8:35 AM 64.8 °F 61.0 °F 88% 29.74 in 10.0 mi South 9.2 mph - N/A   Mostly Cloudy
8:55 AM 66.2 °F 61.7 °F 85% 29.74 in 10.0 mi South 6.9 mph - N/A   Mostly Cloudy
9:15 AM 66.2 °F 60.8 °F 83% 29.74 in 10.0 mi South 10.4 mph 17.3 mph N/A   Overcast
9:55 AM 71.1 °F 63.0 °F 75% 29.73 in 10.0 mi SSW 10.4 mph 17.3 mph N/A   Clear
10:15 AM 71.1 °F 62.2 °F 74% 29.73 in 10.0 mi SSW 9.2 mph 20.7 mph N/A   Clear
10:35 AM 72.3 °F 61.9 °F 70% 29.73 in 10.0 mi SSW 8.1 mph - N/A   Clear
10:55 AM 72.5 °F 60.8 °F 67% 29.73 in 10.0 mi SSW 12.7 mph 20.7 mph N/A   Clear
11:15 AM 74.7 °F 61.9 °F 64% 29.72 in 10.0 mi South 10.4 mph 20.7 mph N/A   Clear
11:35 AM 73.9 °F 61.3 °F 65% 29.72 in 10.0 mi SW 8.1 mph 18.4 mph N/A   Scattered Clouds
11:55 AM 76.1 °F 61.0 °F 59% 29.71 in 10.0 mi SSW 6.9 mph 18.4 mph N/A   Mostly Cloudy
12:15 PM 76.1 °F 58.5 °F 54% 29.71 in 10.0 mi SSW 11.5 mph 17.3 mph N/A   Clear
12:35 PM 78.6 °F 59.5 °F 52% 29.70 in 10.0 mi SSW 10.4 mph 18.4 mph N/A   Clear
12:55 PM 78.1 °F 58.8 °F 51% 29.69 in 10.0 mi SSW 8.1 mph 19.6 mph N/A   Scattered Clouds
1:15 PM 78.8 °F 57.9 °F 49% 29.69 in 10.0 mi SSW 11.5 mph 17.3 mph N/A   Scattered Clouds
1:35 PM 78.8 °F 57.7 °F 48% 29.69 in 10.0 mi SSW 13.8 mph 19.6 mph N/A   Scattered Clouds
1:55 PM 79.2 °F 56.1 °F 45% 29.68 in 10.0 mi SW 9.2 mph 18.4 mph N/A   Clear
2:15 PM 81.1 °F 52.5 °F 37% 29.68 in 10.0 mi SW 8.1 mph 17.3 mph N/A   Clear
2:35 PM 81.3 °F 46.6 °F 29% 29.68 in 10.0 mi SW 10.4 mph 19.6 mph N/A   Clear
2:55 PM 81.3 °F 44.2 °F 27% 29.67 in 10.0 mi SW 6.9 mph 17.3 mph N/A   Scattered Clouds
3:15 PM 81.3 °F 41.9 °F 25% 29.67 in 10.0 mi SW 11.5 mph 21.9 mph N/A   Scattered Clouds
3:35 PM 79.7 °F 42.3 °F 26% 29.67 in 10.0 mi SW 16.1 mph 28.8 mph N/A   Clear
3:55 PM 81.1 °F 40.6 °F 24% 29.67 in 10.0 mi SW 16.1 mph 26.5 mph N/A   Clear
4:15 PM 81.1 °F 39.4 °F 23% 29.67 in 10.0 mi SW 15.0 mph 25.3 mph N/A   Clear
4:35 PM 78.8 °F 38.3 °F 23% 29.67 in 10.0 mi SW 12.7 mph 24.2 mph N/A   Clear
4:55 PM 78.8 °F 39.7 °F 25% 29.67 in 10.0 mi SW 13.8 mph 25.3 mph N/A   Clear
5:15 PM 78.8 °F 40.6 °F 26% 29.67 in 10.0 mi SW 9.2 mph 20.7 mph N/A   Clear
5:35 PM 78.8 °F 38.8 °F 24% 29.67 in 10.0 mi WSW 10.4 mph 19.6 mph N/A   Clear
5:55 PM 77.4 °F 36.1 °F 23% 29.67 in 10.0 mi WSW 10.4 mph 17.3 mph N/A   Clear
6:15 PM 76.8 °F 32.9 °F 20% 29.68 in 10.0 mi SW 8.1 mph 17.3 mph N/A   Clear
6:35 PM 76.1 °F 31.1 °F 19% 29.68 in 10.0 mi WSW 9.2 mph 21.9 mph N/A   Clear
6:55 PM 76.1 °F 30.9 °F 19% 29.69 in 10.0 mi SW 11.5 mph 20.7 mph N/A   Clear
7:15 PM 73.0 °F 31.8 °F 22% 29.70 in 10.0 mi SW 8.1 mph 17.3 mph N/A   Clear
7:35 PM 71.1 °F 32.4 °F 24% 29.70 in 10.0 mi SW 8.1 mph - N/A   Clear
7:55 PM 71.1 °F 34.2 °F 26% 29.71 in 10.0 mi SW 4.6 mph - N/A   Clear
8:15 PM 71.1 °F 33.6 °F 25% 29.72 in 10.0 mi WSW 5.8 mph - N/A   Clear
8:35 PM 71.1 °F 33.6 °F 25% 29.73 in 10.0 mi West 6.9 mph - N/A   Clear
8:55 PM 68.5 °F 33.3 °F 27% 29.73 in 10.0 mi West 8.1 mph - N/A   Clear
9:15 PM 67.3 °F 34.5 °F 30% 29.74 in 10.0 mi WSW 8.1 mph - N/A   Clear
9:35 PM 68.5 °F 36.9 °F 31% 29.75 in 10.0 mi WSW 10.4 mph 20.7 mph N/A   Clear
9:55 PM 66.2 °F 36.3 °F 33% 29.76 in 10.0 mi SSW 4.6 mph - N/A   Clear
10:15 PM 63.7 °F 36.1 °F 36% 29.77 in 10.0 mi SSW 6.9 mph - N/A   Clear
10:35 PM 62.2 °F 37.2 °F 39% 29.77 in 10.0 mi SW 9.2 mph - N/A   Clear
10:55 PM 62.2 °F 37.2 °F 39% 29.78 in 10.0 mi WSW 6.9 mph - N/A   Clear
11:15 PM 62.6 °F 37.4 °F 39% 29.78 in 10.0 mi WSW 9.2 mph - N/A   Clear
11:35 PM 62.2 °F 37.6 °F 40% 29.79 in 10.0 mi WSW 6.9 mph - N/A   Clear
11:55 PM 62.2 °F 38.5 °F 41% 29.79 in 10.0 mi West 8.1 mph - N/A   Clear